TimeEDT,TemperatureF,Dew PointF,Humidity,Sea Level PressureIn,VisibilityMPH,Wind Direction,Wind SpeedMPH,Gust SpeedMPH,PrecipitationIn,Events,Conditions,WindDirDegrees,DateUTC
12:15 AM,38.3,35.6,90,29.74,10.0,WSW,9.2,-,N/A,,Overcast,240,2013-10-20 04:15:00
12:34 AM,38.3,36.5,93,29.73,7.0,SW,4.6,-,N/A,,Mostly Cloudy,230,2013-10-20 04:34:00
12:55 AM,38.3,36.9,95,29.73,10.0,Calm,Calm,-,N/A,,Scattered Clouds,0,2013-10-20 04:55:00
1:14 AM,35.8,35.2,98,29.74,10.0,Calm,Calm,-,N/A,,Mostly Cloudy,0,2013-10-20 05:14:00
1:35 AM,38.3,37.8,98,29.74,4.0,SW,4.6,-,N/A,Rain,Light Rain,230,2013-10-20 05:35:00
1:54 AM,38.3,37.6,97,29.74,7.0,South,3.5,-,N/A,Rain,Light Rain,190,2013-10-20 05:54:00
2:15 AM,38.3,37.9,99,29.74,10.0,Calm,Calm,-,N/A,,Overcast,0,2013-10-20 06:15:00
2:35 AM,38.3,37.9,99,29.74,10.0,North,3.5,-,N/A,,Overcast,360,2013-10-20 06:35:00
2:54 AM,37.6,37.4,99,29.74,10.0,North,4.6,-,N/A,,Overcast,360,2013-10-20 06:54:00
3:15 AM,36.5,36.5,100,29.75,10.0,Calm,Calm,-,N/A,,Overcast,0,2013-10-20 07:15:00
3:34 AM,36.3,36.1,99,29.75,4.0,Calm,Calm,-,N/A,Rain,Light Rain,0,2013-10-20 07:34:00
3:55 AM,37.2,37.2,100,29.75,10.0,Calm,Calm,-,N/A,,Overcast,0,2013-10-20 07:55:00
4:15 AM,36.5,36.5,100,29.75,10.0,North,3.5,-,N/A,Rain,Light Rain,360,2013-10-20 08:15:00
4:34 AM,35.8,35.8,100,29.75,7.0,Calm,Calm,-,N/A,,Mostly Cloudy,0,2013-10-20 08:34:00
4:55 AM,35.8,35.8,100,29.74,10.0,Calm,Calm,-,N/A,,Mostly Cloudy,0,2013-10-20 08:55:00
5:14 AM,35.8,35.8,100,29.75,10.0,Calm,Calm,-,N/A,,Overcast,0,2013-10-20 09:14:00
5:35 AM,35.8,35.8,100,29.75,5.0,Calm,Calm,-,N/A,,Scattered Clouds,0,2013-10-20 09:35:00
5:55 AM,33.3,33.3,100,29.75,3.0,Calm,Calm,-,N/A,,Clear,0,2013-10-20 09:55:00
6:14 AM,33.3,33.3,100,29.75,5.0,Calm,Calm,-,N/A,,Mostly Cloudy,0,2013-10-20 10:14:00
6:35 AM,33.3,33.3,100,29.75,5.0,Calm,Calm,-,N/A,,Overcast,0,2013-10-20 10:35:00
6:54 AM,33.3,33.3,100,29.76,2.0,Calm,Calm,-,N/A,,Scattered Clouds,0,2013-10-20 10:54:00
7:15 AM,31.1,31.1,100,29.76,5.0,SSW,3.5,-,N/A,,Clear,210,2013-10-20 11:15:00
7:35 AM,31.1,31.1,100,29.76,5.0,Calm,Calm,-,N/A,,Clear,0,2013-10-20 11:35:00
7:54 AM,33.1,33.1,100,29.77,3.0,Calm,Calm,-,N/A,,Clear,0,2013-10-20 11:54:00
8:15 AM,31.1,31.1,100,29.78,0.5,Calm,Calm,-,N/A,Fog,Light Freezing Fog,0,2013-10-20 12:15:00
8:35 AM,29.7,29.7,100,29.79,4.0,Calm,Calm,-,N/A,,Mostly Cloudy,0,2013-10-20 12:35:00
8:54 AM,33.3,33.3,100,29.79,5.0,Calm,Calm,-,N/A,,Scattered Clouds,0,2013-10-20 12:54:00
9:15 AM,35.8,35.8,100,29.80,4.0,Calm,Calm,-,N/A,,Clear,0,2013-10-20 13:15:00
9:35 AM,38.3,38.3,100,29.81,7.0,SW,4.6,-,N/A,,Scattered Clouds,230,2013-10-20 13:35:00
9:54 AM,39.6,39.6,100,29.81,10.0,SW,6.9,-,N/A,,Mostly Cloudy,220,2013-10-20 13:54:00
10:15 AM,41.0,40.5,98,29.82,10.0,SW,5.8,-,N/A,,Mostly Cloudy,220,2013-10-20 14:15:00
10:35 AM,42.1,39.7,91,29.82,10.0,SW,6.9,-,N/A,,Scattered Clouds,220,2013-10-20 14:35:00
10:54 AM,43.7,40.3,88,29.82,10.0,SW,4.6,-,N/A,,Clear,220,2013-10-20 14:54:00
11:15 AM,46.2,39.6,78,29.82,10.0,SW,8.1,-,N/A,,Scattered Clouds,220,2013-10-20 15:15:00
11:35 AM,45.9,38.1,74,29.83,10.0,SW,6.9,-,N/A,,Scattered Clouds,220,2013-10-20 15:35:00
11:54 AM,48.4,38.8,70,29.83,10.0,WSW,3.5,-,N/A,,Mostly Cloudy,240,2013-10-20 15:54:00
12:15 PM,48.4,38.3,68,29.83,10.0,West,8.1,-,N/A,,Scattered Clouds,280,2013-10-20 16:15:00
12:35 PM,48.4,37.2,65,29.83,10.0,SW,9.2,-,N/A,,Scattered Clouds,230,2013-10-20 16:35:00
12:54 PM,48.4,35.2,60,29.83,10.0,WSW,5.8,-,N/A,,Scattered Clouds,250,2013-10-20 16:54:00
1:15 PM,48.4,32.7,55,29.83,10.0,SW,6.9,-,N/A,,Clear,230,2013-10-20 17:15:00
1:35 PM,49.1,33.4,55,29.83,10.0,West,9.2,-,N/A,,Scattered Clouds,260,2013-10-20 17:35:00
1:54 PM,52.7,35.4,52,29.82,10.0,SSW,8.1,-,N/A,,Scattered Clouds,210,2013-10-20 17:54:00
2:15 PM,50.9,33.6,52,29.82,10.0,West,6.9,18.4,N/A,,Mostly Cloudy,260,2013-10-20 18:15:00
2:34 PM,51.6,32.5,48,29.82,10.0,SW,5.8,-,N/A,,Scattered Clouds,220,2013-10-20 18:34:00
2:55 PM,52.5,32.2,46,29.81,10.0,SSW,10.4,-,N/A,,Scattered Clouds,210,2013-10-20 18:55:00
3:15 PM,50.7,31.5,48,29.81,10.0,SW,4.6,-,N/A,,Scattered Clouds,230,2013-10-20 19:15:00
3:34 PM,53.6,32.9,45,29.81,10.0,South,4.6,-,N/A,,Mostly Cloudy,180,2013-10-20 19:34:00
3:55 PM,53.6,31.1,42,29.81,10.0,SW,6.9,-,N/A,,Scattered Clouds,220,2013-10-20 19:55:00
4:15 PM,52.9,31.1,43,29.81,10.0,SW,10.4,-,N/A,,Scattered Clouds,230,2013-10-20 20:15:00
4:34 PM,52.7,31.8,45,29.81,10.0,SSW,8.1,-,N/A,,Scattered Clouds,210,2013-10-20 20:34:00
4:55 PM,50.9,31.5,47,29.81,10.0,South,4.6,-,N/A,,Scattered Clouds,190,2013-10-20 20:55:00
5:15 PM,50.7,31.6,48,29.81,10.0,South,8.1,-,N/A,,Scattered Clouds,190,2013-10-20 21:15:00
5:34 PM,49.6,31.8,50,29.81,10.0,South,6.9,-,N/A,,Mostly Cloudy,180,2013-10-20 21:34:00
5:55 PM,48.9,32.0,52,29.81,10.0,South,6.9,-,N/A,,Mostly Cloudy,180,2013-10-20 21:55:00
6:15 PM,48.4,32.4,54,29.80,10.0,South,3.5,-,N/A,,Overcast,180,2013-10-20 22:15:00
6:34 PM,48.4,34.2,58,29.79,10.0,South,3.5,-,N/A,,Overcast,180,2013-10-20 22:34:00
6:55 PM,48.4,35.6,61,29.79,10.0,South,4.6,-,N/A,,Overcast,170,2013-10-20 22:55:00
7:15 PM,48.4,35.6,61,29.79,10.0,South,4.6,-,N/A,,Overcast,170,2013-10-20 23:15:00
7:34 PM,48.4,36.9,64,29.79,10.0,SSE,3.5,-,N/A,Rain,Rain,160,2013-10-20 23:34:00
7:55 PM,46.9,37.9,71,29.80,10.0,South,8.1,16.1,N/A,Rain,Rain,180,2013-10-20 23:55:00
8:14 PM,45.3,40.1,82,29.80,10.0,South,5.8,-,N/A,Rain,Light Rain,170,2013-10-21 00:14:00
8:34 PM,42.8,40.1,90,29.79,10.0,South,5.8,-,N/A,Rain,Light Rain,170,2013-10-21 00:34:00
8:55 PM,43.2,41.2,93,29.78,10.0,SSE,4.6,-,N/A,,Drizzle,160,2013-10-21 00:55:00
9:14 PM,43.2,41.9,95,29.77,10.0,East,6.9,-,N/A,Rain,Light Rain,100,2013-10-21 01:14:00
9:35 PM,43.2,41.4,93,29.76,10.0,SE,8.1,16.1,N/A,Rain,Light Rain,140,2013-10-21 01:35:00
9:54 PM,43.3,41.9,95,29.76,10.0,SSE,4.6,-,N/A,Rain,Light Rain,160,2013-10-21 01:54:00
10:15 PM,43.0,42.1,97,29.75,10.0,ESE,5.8,-,N/A,Rain,Light Rain,120,2013-10-21 02:15:00
10:35 PM,43.0,42.3,97,29.74,7.0,SE,5.8,-,N/A,Rain,Rain,140,2013-10-21 02:35:00
10:54 PM,43.0,42.6,99,29.72,7.0,SE,6.9,-,N/A,Rain,Light Rain,140,2013-10-21 02:54:00
11:15 PM,43.3,43.0,99,29.71,7.0,SE,8.1,-,N/A,Rain,Rain,130,2013-10-21 03:15:00
11:34 PM,43.3,43.2,99,29.71,7.0,SE,10.4,-,N/A,Rain,Light Rain,140,2013-10-21 03:34:00
11:55 PM,44.4,44.2,99,29.70,7.0,SSE,3.5,-,N/A,Rain,Light Rain,160,2013-10-21 03:55:00